Location: Kolin
(50.0330°N, 15.2000°E)
Time: 09:24:30
(UTC+02:00)

ISS - Pass Details

Date: 21 May 2021
Orbit: 417 x 422 km, 51.6° (Epoch: 13 June)

Event Time Altitude Azimuth Distance (km) Brightness Sun altitude
Rises 00:32:17 0° 287° (WNW) 2,370 0.4 -19.6°
Reaches altitude 10° 00:34:23 10° 285° (WNW) 1,505 -0.7 -19.6°
Enters shadow 00:37:16 59° 258° (WSW) 491 -3.6 -19.7°
